Sigfox identifier Datetime Temperature Humidity SNR
003937C4 2018-10-09 08:48:11 21.2 39 14.2
003937C4 2018-10-09 07:43:30 21.1 38 14.5
003937C4 2018-10-09 06:38:49 21.1 38 14.3
003937C4 2018-10-09 05:34:08 21.2 38 14.2
003937C4 2018-10-09 01:15:24 21.2 37 13.9
003937C4 2018-10-09 00:10:37 21.2 37 13.9
003937C4 2018-10-08 23:05:57 21.2 37 14
003937C4 2018-10-08 22:01:14 21.2 37 13.5
003937C4 2018-10-08 20:56:35 21.2 37 13.5
003937C4 2018-10-08 19:51:52 21.2 37 14.1
003937C4 2018-10-08 17:42:31 21.2 36 14.1
003937C4 2018-10-08 16:37:46 21.2 36 14
003937C4 2018-10-08 15:33:06 21 36 14.3
003937C4 2018-10-08 13:23:42 20.9 35 14
003937C4 2018-10-08 12:19:03 20.7 35 14
003937C4 2018-10-08 11:14:18 20.7 32 14
003937C4 2018-10-08 10:09:34 20.5 31 13.9
003937C4 2018-10-08 09:04:52 20.5 31 13.9
003937C4 2018-10-08 08:00:08 20.5 32 14
003937C4 2018-10-08 06:55:23 20.5 33 14.1
003937C4 2018-10-08 05:50:43 20.5 33 14
003937C4 2018-10-08 04:46:01 20.5 33 13.9
003937C4 2018-10-08 03:41:17 20.5 34 13.6
003937C4 2018-10-08 02:36:35 20.5 34 13.1
003937C4 2018-10-08 01:31:47 20.6 34 13.2
003937C4 2018-10-08 00:27:03 20.7 35 13.4
003937C4 2018-10-07 23:22:15 20.7 36 13.2
003937C4 2018-10-07 22:17:29 20.7 36 13.3
003937C4 2018-10-07 21:12:45 20.7 37 13.5
003937C4 2018-10-07 20:07:59 20.7 37 13.7
003937C4 2018-10-07 19:03:13 20.7 37 13.8
003937C4 2018-10-07 17:58:29 20.7 38 13.7
003937C4 2018-10-07 16:53:39 20.7 37 13.7
003937C4 2018-10-07 15:48:54 20.7 37 13.6
003937C4 2018-10-07 14:44:08 20.7 37 12.8
003937C4 2018-10-07 13:39:21 20.7 37 12.9
003937C4 2018-10-07 12:34:35 20.7 37 13
003937C4 2018-10-07 11:29:48 20.7 37 12.6
003937C4 2018-10-07 10:25:01 20.7 37 12.8
003937C4 2018-10-07 09:20:17 20.7 37 13
003937C4 2018-10-07 08:15:33 20.7 38 13
003937C4 2018-10-07 07:10:46 20.7 38 13
003937C4 2018-10-07 06:06:03 20.7 38 13.1
003937C4 2018-10-07 05:01:17 20.7 38 12.7
003937C4 2018-10-07 03:56:34 20.8 38 13
003937C4 2018-10-07 02:51:49 20.9 39 13.2
003937C4 2018-10-07 01:47:05 21 39 13.5
003937C4 2018-10-07 00:42:20 21 39 13.9
003937C4 2018-10-06 23:37:35 21 39 13.9
003937C4 2018-10-06 22:32:50 20.9 39 14.1
003937C4 2018-10-06 21:28:06 21 39 14
003937C4 2018-10-06 20:23:23 20.9 39 14.1
003937C4 2018-10-06 19:18:40 21 39 13.9
003937C4 2018-10-06 18:13:56 21 39 13.8
003937C4 2018-10-06 17:09:07 21 39 13.7
003937C4 2018-10-06 16:04:20 21 39 13.7
003937C4 2018-10-06 14:59:34 20.9 39 13.7
003937C4 2018-10-06 13:54:48 20.9 39 13.9
003937C4 2018-10-06 12:50:01 20.9 39 14
003937C4 2018-10-06 11:45:12 21 39 14.2
003937C4 2018-10-06 10:40:25 21 39 14.1
003937C4 2018-10-06 09:35:37 21 39 14.2
003937C4 2018-10-06 08:30:50 21 39 14.4
003937C4 2018-10-06 07:26:02 21 39 14.4
003937C4 2018-10-06 06:21:15 21.1 40 14.4
003937C4 2018-10-06 05:16:29 21.1 40 14.6
003937C4 2018-10-06 04:11:42 21.2 41 14.9
003937C4 2018-10-06 03:06:55 21.1 41 15.1
003937C4 2018-10-06 02:02:09 21.2 41 15.4
003937C4 2018-10-06 00:57:23 21.3 41 14.8
003937C4 2018-10-05 23:52:37 21.4 42 14.8
003937C4 2018-10-05 22:47:51 21.4 42 14.3
003937C4 2018-10-05 21:43:05 21.4 43 13.1
003937C4 2018-10-05 20:38:20 21.5 44 13.5
003937C4 2018-10-05 19:33:35 21.6 44 10.7
003937C4 2018-10-05 18:28:52 21.6 45 11
003937C4 2018-10-05 17:24:09 21.8 45 6
003937C4 2018-10-05 16:19:28 21.6 54 0